Back to catalog

PICOSAT 9

AliveScienceLEO
NORAD 26930·PAYLOAD·🇺🇸 United States

Launched Sep 30, 2001 from Kodiak Launch Complex

Loading…

Next Passes (next 24 hours)

TLE

FreshSource: Space-Track

Epoch: Sep 14, 2026, 07:15 UTC

1 26930U 01043B   26257.30243850  .00000013  00000-0  36329-4 0  9996
2 26930  67.0017 314.0644 0008342 236.2476 123.7832 14.31606528303482

Track PICOSAT 9 in real time with AllMySat

Download on the App Store